TimeEDT,TemperatureF,Dew PointF,Humidity,Sea Level PressureIn,VisibilityMPH,Wind Direction,Wind SpeedMPH,Gust SpeedMPH,PrecipitationIn,Events,Conditions,WindDirDegrees,DateUTC
12:15 AM,46.4,42.8,87,29.95,10.0,Calm,Calm,-,N/A,,Clear,0,2013-09-26 04:15:00
12:35 AM,46.4,42.8,87,29.95,10.0,Calm,Calm,-,N/A,,Clear,0,2013-09-26 04:35:00
12:55 AM,44.6,42.8,93,29.95,10.0,Calm,Calm,-,N/A,,Clear,0,2013-09-26 04:55:00
1:15 AM,44.6,42.8,93,29.95,10.0,Calm,Calm,-,N/A,,Clear,0,2013-09-26 05:15:00
1:35 AM,44.6,41.0,87,29.95,10.0,Calm,Calm,-,N/A,,Clear,0,2013-09-26 05:35:00
1:55 AM,44.6,39.2,81,29.95,10.0,Calm,Calm,-,N/A,,Clear,0,2013-09-26 05:55:00
2:15 AM,44.6,42.8,93,29.95,10.0,Calm,Calm,-,N/A,,Clear,0,2013-09-26 06:15:00
2:35 AM,44.6,41.0,87,29.95,10.0,Calm,Calm,-,N/A,,Clear,0,2013-09-26 06:35:00
2:55 AM,44.6,39.2,81,29.95,10.0,Calm,Calm,-,N/A,,Clear,0,2013-09-26 06:55:00
3:15 AM,44.6,39.2,81,29.95,10.0,Calm,Calm,-,N/A,,Clear,0,2013-09-26 07:15:00
3:35 AM,44.6,41.0,87,29.95,10.0,Calm,Calm,-,N/A,,Clear,0,2013-09-26 07:35:00
3:55 AM,44.6,41.0,87,29.95,10.0,Calm,Calm,-,N/A,,Clear,0,2013-09-26 07:55:00
4:15 AM,42.8,39.2,87,29.96,10.0,Calm,Calm,-,N/A,,Clear,0,2013-09-26 08:15:00
4:35 AM,44.6,39.2,81,29.95,10.0,Calm,Calm,-,N/A,,Clear,0,2013-09-26 08:35:00
4:55 AM,44.6,42.8,93,29.96,10.0,Calm,Calm,-,N/A,,Clear,0,2013-09-26 08:55:00
5:15 AM,46.4,42.8,87,29.96,10.0,Calm,Calm,-,N/A,,Clear,0,2013-09-26 09:15:00
5:35 AM,46.4,42.8,87,29.96,10.0,Calm,Calm,-,N/A,,Clear,0,2013-09-26 09:35:00
5:55 AM,48.2,46.4,93,29.97,10.0,Calm,Calm,-,N/A,,Clear,0,2013-09-26 09:55:00
6:15 AM,46.4,42.8,87,29.97,10.0,Calm,Calm,-,N/A,,Clear,0,2013-09-26 10:15:00
6:35 AM,44.6,42.8,93,29.98,10.0,Calm,Calm,-,N/A,,Clear,0,2013-09-26 10:35:00
6:55 AM,44.6,42.8,93,29.98,10.0,Calm,Calm,-,N/A,,Clear,0,2013-09-26 10:55:00
7:15 AM,44.6,42.8,93,29.99,10.0,Calm,Calm,-,N/A,,Clear,0,2013-09-26 11:15:00
7:35 AM,46.4,42.8,87,29.99,10.0,Calm,Calm,-,N/A,,Clear,0,2013-09-26 11:35:00
7:55 AM,50.0,46.4,87,29.99,10.0,Calm,Calm,-,N/A,,Clear,0,2013-09-26 11:55:00
8:15 AM,51.8,50.0,94,29.99,10.0,Calm,Calm,-,N/A,,Clear,0,2013-09-26 12:15:00
8:35 AM,53.6,51.8,94,30.00,10.0,Calm,Calm,-,N/A,,Clear,0,2013-09-26 12:35:00
8:55 AM,57.2,51.8,82,30.00,10.0,NNE,3.5,-,N/A,,Clear,30,2013-09-26 12:55:00
9:15 AM,59.0,53.6,82,30.01,10.0,NNE,4.6,-,N/A,,Clear,30,2013-09-26 13:15:00
9:35 AM,60.8,55.4,82,30.01,10.0,NE,4.6,-,N/A,,Clear,50,2013-09-26 13:35:00
9:55 AM,64.4,55.4,73,30.02,10.0,ENE,3.5,-,N/A,,Clear,70,2013-09-26 13:55:00
10:15 AM,64.4,55.4,73,30.02,10.0,NE,3.5,-,N/A,,Clear,50,2013-09-26 14:15:00
10:35 AM,66.2,53.6,64,30.02,10.0,Calm,Calm,-,N/A,,Clear,0,2013-09-26 14:35:00
10:55 AM,66.2,51.8,60,30.02,10.0,Calm,Calm,-,N/A,,Clear,0,2013-09-26 14:55:00
11:15 AM,66.2,51.8,60,30.02,10.0,Calm,Calm,-,N/A,,Clear,0,2013-09-26 15:15:00
11:35 AM,66.2,51.8,60,30.02,10.0,North,3.5,-,N/A,,Clear,360,2013-09-26 15:35:00
11:55 AM,68.0,51.8,56,30.02,10.0,Calm,Calm,-,N/A,,Clear,0,2013-09-26 15:55:00
12:15 PM,69.8,51.8,53,30.02,10.0,Calm,Calm,-,N/A,,Scattered Clouds,0,2013-09-26 16:15:00
12:35 PM,69.8,51.8,53,30.02,10.0,Calm,Calm,-,N/A,,Overcast,0,2013-09-26 16:35:00
12:55 PM,69.8,51.8,53,30.02,10.0,Calm,Calm,-,N/A,,Overcast,0,2013-09-26 16:55:00
1:15 PM,69.8,55.4,60,30.02,10.0,ESE,6.9,-,N/A,,Overcast,110,2013-09-26 17:15:00
1:35 PM,68.0,53.6,60,30.02,10.0,SE,6.9,-,N/A,,Overcast,130,2013-09-26 17:35:00
1:55 PM,66.2,55.4,68,30.01,10.0,SE,3.5,-,N/A,,Overcast,140,2013-09-26 17:55:00
2:15 PM,66.2,53.6,64,30.02,10.0,ESE,3.5,-,N/A,,Overcast,110,2013-09-26 18:15:00
2:35 PM,66.2,55.4,68,30.02,10.0,SE,3.5,-,N/A,,Overcast,130,2013-09-26 18:35:00
2:55 PM,66.2,55.4,68,30.02,10.0,SSE,4.6,-,N/A,,Mostly Cloudy,150,2013-09-26 18:55:00
3:15 PM,66.2,55.4,68,30.02,10.0,SE,5.8,-,N/A,,Overcast,140,2013-09-26 19:15:00
3:35 PM,66.2,55.4,68,30.02,10.0,ESE,3.5,-,N/A,,Overcast,120,2013-09-26 19:35:00
3:55 PM,66.2,55.4,68,30.02,10.0,ESE,4.6,-,N/A,,Overcast,120,2013-09-26 19:55:00
4:15 PM,66.2,55.4,68,30.02,10.0,SE,3.5,-,N/A,,Overcast,130,2013-09-26 20:15:00
4:35 PM,66.2,57.2,73,30.03,10.0,Calm,Calm,-,N/A,,Overcast,0,2013-09-26 20:35:00
4:55 PM,66.2,57.2,73,30.03,10.0,Calm,Calm,-,N/A,,Overcast,0,2013-09-26 20:55:00
5:15 PM,66.2,57.2,73,30.03,10.0,Calm,Calm,-,N/A,,Mostly Cloudy,0,2013-09-26 21:15:00
5:35 PM,66.2,55.4,68,30.04,10.0,Calm,Calm,-,N/A,,Overcast,0,2013-09-26 21:35:00
5:55 PM,64.4,55.4,73,30.04,10.0,Calm,Calm,-,N/A,,Mostly Cloudy,0,2013-09-26 21:55:00
6:15 PM,64.4,55.4,73,30.05,10.0,Calm,Calm,-,N/A,,Clear,0,2013-09-26 22:15:00
6:35 PM,62.6,55.4,77,30.05,10.0,Calm,Calm,-,N/A,,Clear,0,2013-09-26 22:35:00
6:55 PM,62.6,55.4,77,30.05,10.0,Calm,Calm,-,N/A,,Clear,0,2013-09-26 22:55:00
7:15 PM,60.8,55.4,82,30.05,10.0,Calm,Calm,-,N/A,,Clear,0,2013-09-26 23:15:00
7:35 PM,57.2,53.6,88,30.06,10.0,Calm,Calm,-,N/A,,Clear,0,2013-09-26 23:35:00
7:55 PM,55.4,53.6,94,30.06,10.0,Calm,Calm,-,N/A,,Clear,0,2013-09-26 23:55:00
8:15 PM,55.4,53.6,94,30.07,10.0,Calm,Calm,-,N/A,,Clear,0,2013-09-27 00:15:00
8:35 PM,53.6,51.8,94,30.07,10.0,Calm,Calm,-,N/A,,Clear,0,2013-09-27 00:35:00
8:55 PM,53.6,50.0,88,30.08,10.0,Calm,Calm,-,N/A,,Clear,0,2013-09-27 00:55:00
9:15 PM,51.8,48.2,88,30.08,10.0,Calm,Calm,-,N/A,,Clear,0,2013-09-27 01:15:00
9:35 PM,51.8,48.2,88,30.09,10.0,Calm,Calm,-,N/A,,Clear,0,2013-09-27 01:35:00
9:55 PM,51.8,48.2,88,30.09,10.0,Calm,Calm,-,N/A,,Partly Cloudy,0,2013-09-27 01:55:00
10:15 PM,50.0,46.4,87,30.10,10.0,Calm,Calm,-,N/A,,Partly Cloudy,0,2013-09-27 02:15:00
10:35 PM,50.0,46.4,87,30.10,10.0,Calm,Calm,-,N/A,,Partly Cloudy,0,2013-09-27 02:35:00
10:55 PM,50.0,46.4,87,30.10,10.0,Calm,Calm,-,N/A,,Mostly Cloudy,0,2013-09-27 02:55:00
11:15 PM,50.0,46.4,87,30.10,10.0,Calm,Calm,-,N/A,,Mostly Cloudy,0,2013-09-27 03:15:00
11:35 PM,50.0,46.4,87,30.10,10.0,Calm,Calm,-,N/A,,Overcast,0,2013-09-27 03:35:00
11:55 PM,51.8,48.2,88,30.10,10.0,Calm,Calm,-,N/A,,Overcast,0,2013-09-27 03:55:00